TIME,DELAY(SENSOR),PRES,OXYGEN,RAWTEMP,T(OPTODE),TCPHASE,FLUOR,BETA(BETA700),BETA(BETA412),BETA(BETA440),CDOM,C(CSC),ED(ED411.90),ED(ED443.80),ED(ED489.40),ED(ED554.70),LU(LU412.20),LU(LU443.80),LU(LU489.40),LU(LU555.00),COMP,TILTX,TILTY,CHECK
1345674126,5804,848.4099731445312000,164.8905944824218800,393.2661132812500000,10.8078699111938480,38.4934997558593750,53,103,99,80,80,13852,2146958025,2147515337,2147283373,2147500955,2147089974,2146931693,2147698322,2147120548,1978,-2,8,31486
1345677722,5804,971.7299804687500000,180.7729949951172000,472.9388122558594000,8.3666830062866210,38.6790504455566400,52,105,100,81,80,13847,2146959753,2147513572,2147291876,2147516900,2147092553,2146928219,2147715355,2147116132,2166,-2,8,11743
1345681322,5808,989.3099975585938000,193.2882995605468800,485.2668151855469000,7.9858651161193850,38.0652999877929700,52,100,99,79,80,13844,2146957842,2147515702,2147291492,2147518070,2147091181,2146922038,2147720082,2147117403,410,-2,8,59850
1345684922,5805,992.5300292968750000,194.5216064453125000,487.1856079101562500,7.9265089035034180,38.0195503234863300,52,105,100,79,80,13843,2146959652,2147513051,2147293184,2147517723,2147091867,2146922816,2147716525,2147116681,3296,-2,8,3155
1345688522,5807,993.9600219726562000,196.5928039550781200,490.0566101074219000,7.8376531600952150,37.9388694763183600,52,106,103,79,80,13838,2146956854,2147517504,2147295140,2147516379,2147091657,2146923611,2147720841,2147119177,127,-2,8,38362
1345692122,5806,996.6300048828125000,198.2976074218750000,493.0911865234375000,7.7436752319335940,37.8847084045410160,52,100,102,78,80,13839,2146961133,2147513344,2147294354,2147520603,2147092406,2146925376,2147715318,2147116260,3049,-2,8,34666
1345695722,5805,992.6599731445312000,199.0142059326172000,494.8062133789062500,7.6905369758605960,37.8691902160644500,52,102,98,79,80,13833,2146958070,2147515108,2147295552,2147521106,2147090624,2146923136,2147718930,2147117696,3054,-2,8,15397
1345699322,5807,994.7600097656250000,199.3475952148437500,495.1408081054687500,7.6801657676696780,37.8542594909668000,53,102,100,80,80,13835,2146957348,2147514340,2147294208,2147520219,2147089746,2146920658,2147716882,2147116973,386,-2,8,6979
1345702922,5806,1006.7000122070312000,198.5751953125000000,494.1910095214844000,7.7095999717712400,37.8860397338867200,52,103,100,80,80,13834,2146956946,2147513609,2147294454,2147520457,2147091894,2146924708,2147717942,2147118692,193,-1,8,9363
1345706522,5809,1005.9400024414062000,197.5511932373047000,493.8178100585937500,7.7211651802062990,37.9435005187988300,53,108,99,79,80,13825,2146957952,2147517741,2147296000,2147520182,2147090825,2146923145,2147719131,2147117312,41,-1,7,42883
1345710122,5807,1003.1099853515625000,198.7532958984375000,494.7385864257812500,7.6926321983337400,37.8842315673828100,53,107,99,81,80,13825,2146959945,2147517193,2147294976,2147520457,2147086912,2146919405,2147714907,2147118317,863,-2,8,54137
1345713722,5805,1010.0100097656250000,197.8605957031250000,493.5115966796875000,7.7306499481201170,37.9193382263183600,52,102,99,80,80,13827,2146955008,2147518400,2147295012,2147521316,2147089517,2146921910,2147714843,2147115648,443,-2,7,22335
1345717322,5806,1013.2500000000000000,198.5534057617187500,492.4724121093750000,7.7628440856933590,37.8579406738281250,53,102,100,79,81,13823,2146955547,2147514358,2147293833,2147521206,2147087689,2146925933,2147716498,2147117732,253,-2,8,20700
1345720922,5806,1013.1799926757812000,197.4510040283203000,491.4776916503906000,7.7936511039733890,37.9096412658691400,52,104,99,79,80,13819,2146953883,2147514166,2147295442,2147521197,2147090157,2146931355,2147717860,2147115126,2906,-2,8,47889
1345724522,5805,1005.8900146484375000,198.7380981445312500,493.5188903808594000,7.7304248809814450,37.8642196655273440,52,102,98,77,79,13824,2146957193,2147516672,2147293568,2147518829,2147091684,2146925933,2147714834,2147117805,3101,-2,8,23096
1345728122,5805,1000.8800048828125000,199.5252990722656200,496.0794067382812500,7.6510758399963380,37.8602104187011700,53,101,99,79,80,13818,2146963794,2147519369,2147295725,2147521728,2147092068,2146927350,2147716973,2147115611,3241,-2,8,55968
1345731722,5806,1006.2700195312500000,199.6788940429687500,497.3601074218750000,7.6113719940185550,37.8724288940429700,53,103,99,80,80,13820,2146959277,2147515099,2147293558,2147520246,2147090752,2146927872,2147714349,2147117686,3295,-2,8,23621
1345735322,5804,1008.2100219726562000,200.0258941650390600,496.3526916503906000,7.6426029205322270,37.8339996337890600,52,102,100,78,79,13820,2146962029,2147519067,2147297581,2147519350,2147086253,2146920173,2147717805,2147114806,3497,-2,8,17661
1345738922,5805,1005.2500000000000000,199.9058074951172000,496.4035034179687500,7.6410269737243650,37.8421592712402340,53,104,108,79,80,13820,2146959890,2147512091,2147295954,2147522057,2147092461,2146922532,2147717266,2147116443,3509,-2,8,18877
1345742522,5805,1007.0399780273438000,200.1593933105468800,497.9318847656250000,7.5936379432678220,37.8529281616210940,52,103,100,80,79,13819,2146959360,2147513737,2147294838,2147520566,2147092196,2146923145,2147720777,2147117504,3090,-2,8,16407
1345746122,5804,1004.1799926757812000,200.2778015136718800,498.1267089843750000,7.5876002311706540,37.8490791320800800,52,101,97,79,79,13823,2146960219,2147512612,2147294198,2147521801,2147090569,2146925001,2147717705,2147116169,3439,-2,8,47064
1345749722,5804,1008.3200073242188000,199.7084045410156200,498.1029052734375000,7.5883378982543945,37.8837585449218750,52,102,99,79,80,13789,2146959872,2147517101,2147294226,2147521517,2147091099,2146924900,2147719862,2147117412,3515,-2,8,39374
1345753322,5808,1007.9899902343750000,199.8865051269531200,497.3182067871094000,7.6126708984375000,37.8591194152832000,53,102,99,81,79,13786,2146957202,2147515209,2147296557,2147521371,2147091940,2146926043,2147716525,2147116416,200,-2,8,59799
1345756922,5806,1009.1900024414062000,200.8195953369140600,497.4587097167969000,7.6083140373229980,37.8049011230468750,54,104,99,78,80,13788,2146956525,2147517065,2147293284,2147522240,2147091200,2146921536,2147715739,2147115254,279,-2,8,4330
1345760522,5806,1013.5700073242188000,199.7783050537109400,496.0062866210937500,7.6533408164978030,37.8431892395019500,53,100,99,79,80,13785,2146959451,2147516068,2147295826,2147521088,2147091218,2146925056,2147717312,2147114998,3054,-2,8,15224
1345764122,5808,1013.3200073242188000,200.2344970703125000,496.2619934082031000,7.6454138755798340,37.8195495605468750,51,104,99,80,80,13786,2146956589,2147518875,2147292918,2147518820,2147091062,2146925412,2147720502,2147116086,3596,-2,8,2307
1345767722,5805,1017.0200195312500000,198.3264007568359400,495.6015930175781000,7.6658849716186520,37.9261016845703100,53,102,100,79,80,13780,2146958921,2147510838,2147298093,2147522733,2147091547,2146927506,2147719570,2147115995,3051,-2,8,5638
1345771322,5807,1014.7600097656250000,197.2646942138672000,495.7550964355469000,7.6611270904541020,37.9954490661621100,52,102,100,79,81,13782,2146960594,2147514834,2147294262,2147524059,2147091218,2146921929,2147715520,2147118546,3230,-2,8,30874
1345774922,5805,1013.1500244140625000,197.7810058593750000,496.3695983886719000,7.6420788764953610,37.9734306335449200,52,105,98,79,79,13780,2146958784,2147516754,2147294089,2147524580,2147090688,2146923574,2147716425,2147116772,3500,-2,8,25352
1345778522,5804,1011.1300048828125000,200.3607025146484400,496.7684020996094000,7.6297159194946290,37.8206481933593750,52,103,99,80,80,13778,2146958080,2147518381,2147294244,2147522230,2147092763,2146923748,2147716544,2147117430,2908,-2,8,6313
1345782122,5808,1015.3599853515625000,199.5991058349609400,496.9338989257812500,7.6245841979980470,37.8708992004394500,52,103,99,79,81,13778,2146960621,2147514358,2147295661,2147520091,2147094482,2146926500,2147718436,2147114706,127,-2,7,42467
1345785722,5805,1018.8699951171875000,199.8377990722656200,496.9183044433594000,7.6250691413879395,37.8555793762207000,52,105,101,79,79,13777,2146957513,2147517741,2147291840,2147522112,2147092379,2146924982,2147714404,2147117778,3467,-2,8,10007
1345789322,5806,1017.0000000000000000,200.6842041015625000,497.2958068847656000,7.6133642196655270,37.8097610473632800,52,103,100,79,80,13779,2146957778,2147512457,2147293714,2147518235,2147092516,2146921874,2147713197,2147118656,3290,-2,8,44884
1345792922,5803,1018.2399902343750000,200.4306030273437500,496.2131958007812500,7.6469268798828125,37.8062400817871100,52,101,101,78,80,13770,2146958281,2147518070,2147295104,2147522203,2147091547,2146922825,2147717970,2147117714,3232,-2,8,48202
1345796522,5803,1017.2299804687500000,199.2064971923828000,495.3659057617187500,7.6731920242309570,37.8667984008789060,52,102,102,78,79,13777,2146959552,2147516553,2147293558,2147521426,2147091593,2146923849,2147719222,2147118537,3548,-2,8,64508
1345800122,5808,1017.2399902343750000,198.9736938476562500,497.1227111816406000,7.6187329292297360,37.9125404357910160,52,104,99,79,80,13775,2146958089,2147515520,2147292717,2147520676,2147090569,2146922678,2147714267,2147118601,3159,-2,8,11865
1345803722,5805,1016.1900024414062000,200.4951019287109400,496.9212951660156000,7.6249737739562990,37.8144416809082000,52,101,99,78,80,13775,2146955483,2147514304,2147294171,2147519652,2147091712,2146923968,2147715008,2147114870,2830,-2,8,31650
1345807322,5806,1015.7199707031250000,201.0556945800781200,497.9219055175781000,7.5939488410949710,37.7976684570312500,52,100,99,78,81,13774,2146955346,2147517120,2147294098,2147519442,2147090340,2146925092,2147716580,2147118820,275,-2,8,9067
1345810922,5805,1012.3900146484375000,202.1871948242187500,498.9006042480469000,7.5635981559753420,37.7454795837402340,52,103,99,80,80,13773,2146957851,2147515748,2147294345,2147519286,2147092498,2146921865,2147718756,2147116452,216,-2,8,54694
1345814522,5807,1017.9699707031250000,201.4272003173828000,498.2414855957031000,7.5840411186218260,37.7804908752441400,52,124,100,79,80,13777,2146956534,2147513206,2147292004,2147521545,2147093824,2146923501,2147722752,2147117440,271,-2,8,30020
1345815355,5806,1020.2800292968750000,200.3957977294922000,498.1778869628906000,7.5860109329223630,37.8423194885253900,52,103,101,79,80,13805,2146956278,2147513664,2147290998,2147522998,2147092205,2146926793,2147715986,2147115309,3400,-2,8,40546
